sat.trackr.live / text

‹ back to catalog

STARLINK-30036

NORAD 56692 · 2023-067E

PAYLOAD ACTIVE UNKNOWN

§ Identity

Operator
Country
US
Launch date
2023-05-19
Launch site
AFETR
Launch vehicle
Mass (kg)
RCS (m²)

Purposes: comms

External: N2YO · Heavens-Above · Gunter

§ Orbital elements

Epoch: 2026-05-25T05:04:05.539008Z

Period
94.27 min
Inclination
43.0027°
Eccentricity
0.0001500
Mean motion
15.27578419 rev/d
Perigee alt
482.0 km
Apogee alt
484.1 km
Semi-major
6,861.2 km
B*
4.2243e-5
RAAN
209.0736°
Arg perigee
269.9685°
Mean anomaly
90.0995°
Rev number
16,615

§ Raw data

STARLINK-300361 56692U 23067E   26145.21117522  .00000900  00000+0  42243-4 0  99922 56692  43.0027 209.0736 0001500 269.9685  90.0995 15.27578419166154

JSON: /api/v1/satellites/56692 · /tle

For live sub-satellite position, see the globe view (requires WebGL).

§ Visibility from observer

Set your observer location to see the next 7 days of passes ≥ 10°. The values pass through the URL so the page stays shareable.

No JS? Fill the form by hand. The geolocation button needs JavaScript.